Time,TemperatureF,DewpointF,PressureIn,WindDirection,WindDirectionDegrees,WindSpeedMPH,WindSpeedGustMPH,Humidity,HourlyPrecipIn,Conditions,Clouds,dailyrainin,SoftwareType,DateUTC
2013-04-27 00:00:00,61.0,-6.7,29.95,WSW,242,0.0,0.0,6,0.00,,---,0.00,VWS V14.01,2013-04-27 07:00:00,
2013-04-27 00:05:00,61.2,-6.6,29.95,WSW,241,0.0,0.0,6,0.00,,---,0.00,VWS V14.01,2013-04-27 07:05:00,
2013-04-27 00:10:00,61.0,-6.7,29.95,WSW,242,0.0,0.0,6,0.00,,---,0.00,VWS V14.01,2013-04-27 07:10:00,
2013-04-27 00:15:00,60.3,-4.1,29.95,WSW,241,0.0,0.0,7,0.00,,---,0.00,VWS V14.01,2013-04-27 07:15:00,
2013-04-27 00:20:00,60.1,-4.2,29.95,SW,234,0.0,0.0,7,0.00,,---,0.00,VWS V14.01,2013-04-27 07:20:00,
2013-04-27 00:25:00,59.5,-4.6,29.95,SW,234,0.0,0.0,7,0.00,,---,0.00,VWS V14.01,2013-04-27 07:25:00,
2013-04-27 00:30:00,59.2,-4.9,29.95,SW,234,0.0,0.0,7,0.00,,---,0.00,VWS V14.01,2013-04-27 07:30:00,
2013-04-27 00:35:00,59.2,-4.9,29.95,SW,234,0.0,0.0,7,0.00,,---,0.00,VWS V14.01,2013-04-27 07:35:00,
2013-04-27 00:40:00,58.6,-5.3,29.95,SW,234,0.0,0.0,7,0.00,,---,0.00,VWS V14.01,2013-04-27 07:40:00,
2013-04-27 00:45:00,58.5,-5.4,29.95,SW,235,0.0,0.0,7,0.00,,---,0.00,VWS V14.01,2013-04-27 07:45:00,
2013-04-27 00:50:00,58.6,-5.3,29.95,West,276,0.0,0.0,7,0.00,,---,0.00,VWS V14.01,2013-04-27 07:50:00,
2013-04-27 00:55:00,59.0,-5.0,29.95,West,279,2.7,2.7,7,0.00,,---,0.00,VWS V14.01,2013-04-27 07:55:00,
2013-04-27 01:00:00,59.0,-5.0,29.95,West,273,0.0,0.0,7,0.00,,---,0.00,VWS V14.01,2013-04-27 08:00:00,
2013-04-27 01:05:00,58.8,-5.2,29.95,West,273,0.0,0.0,7,0.00,,---,0.00,VWS V14.01,2013-04-27 08:05:00,
2013-04-27 01:10:00,58.5,-5.4,29.95,West,274,0.0,0.0,7,0.00,,---,0.00,VWS V14.01,2013-04-27 08:10:00,
2013-04-27 01:15:00,58.5,-5.4,29.95,West,273,0.0,0.0,7,0.00,,---,0.00,VWS V14.01,2013-04-27 08:15:00,
2013-04-27 01:20:00,58.1,-5.7,29.95,West,274,0.0,0.0,7,0.00,,---,0.00,VWS V14.01,2013-04-27 08:20:00,
2013-04-27 01:25:00,57.4,-6.2,29.95,West,273,0.0,0.0,7,0.00,,---,0.00,VWS V14.01,2013-04-27 08:25:00,
2013-04-27 01:30:00,57.0,-6.5,29.95,West,274,0.0,0.0,7,0.00,,---,0.00,VWS V14.01,2013-04-27 08:30:00,
2013-04-27 01:36:00,56.3,-7.0,29.95,West,270,0.0,0.0,7,0.00,,---,0.00,VWS V14.01,2013-04-27 08:36:00,
2013-04-27 01:41:00,56.3,-7.0,29.95,WSW,239,0.0,0.0,7,0.00,,---,0.00,VWS V14.01,2013-04-27 08:41:00,
2013-04-27 01:46:00,56.1,-7.2,29.95,SW,236,0.0,0.0,7,0.00,,---,0.00,VWS V14.01,2013-04-27 08:46:00,
2013-04-27 01:51:00,55.9,-7.3,29.95,SW,234,0.0,0.0,7,0.00,,---,0.00,VWS V14.01,2013-04-27 08:51:00,
2013-04-27 01:56:00,55.9,-7.3,29.92,SW,233,0.0,0.0,7,0.00,,---,0.00,VWS V14.01,2013-04-27 08:56:00,
2013-04-27 02:01:00,55.9,-7.3,29.92,SW,224,0.0,0.0,7,0.00,,---,0.00,VWS V14.01,2013-04-27 09:01:00,
2013-04-27 02:06:00,55.4,-7.7,29.92,SW,224,0.0,0.0,7,0.00,,---,0.00,VWS V14.01,2013-04-27 09:06:00,
2013-04-27 02:11:00,55.2,-5.1,29.92,SW,224,0.0,0.0,8,0.00,,---,0.00,VWS V14.01,2013-04-27 09:11:00,
2013-04-27 02:16:00,55.4,-7.7,29.92,SW,224,0.0,0.0,7,0.00,,---,0.00,VWS V14.01,2013-04-27 09:16:00,
2013-04-27 02:21:00,55.4,-7.7,29.92,SW,224,0.0,0.0,7,0.00,,---,0.00,VWS V14.01,2013-04-27 09:21:00,
2013-04-27 02:26:00,54.9,-5.3,29.92,SW,224,0.0,0.0,8,0.00,,---,0.00,VWS V14.01,2013-04-27 09:26:00,
2013-04-27 02:31:00,54.5,-5.6,29.92,SW,224,0.0,0.0,8,0.00,,---,0.00,VWS V14.01,2013-04-27 09:31:00,
2013-04-27 02:36:00,54.1,-5.9,29.95,SW,224,0.0,0.0,8,0.00,,---,0.00,VWS V14.01,2013-04-27 09:36:00,
2013-04-27 02:41:00,53.8,-6.2,29.95,SW,224,0.0,0.0,8,0.00,,---,0.00,VWS V14.01,2013-04-27 09:41:00,
2013-04-27 02:46:00,53.4,-6.4,29.95,SW,223,0.0,0.0,8,0.00,,---,0.00,VWS V14.01,2013-04-27 09:46:00,
2013-04-27 02:51:00,53.4,-6.4,29.95,SW,223,0.0,0.0,8,0.00,,---,0.00,VWS V14.01,2013-04-27 09:51:00,
2013-04-27 02:56:00,53.8,-6.2,29.92,SW,221,0.0,0.0,8,0.00,,---,0.00,VWS V14.01,2013-04-27 09:56:00,
2013-04-27 03:01:00,53.8,-6.2,29.92,SW,220,0.0,0.0,8,0.00,,---,0.00,VWS V14.01,2013-04-27 10:01:00,
2013-04-27 03:06:00,54.0,-6.0,29.92,SW,219,0.0,0.0,8,0.00,,---,0.00,VWS V14.01,2013-04-27 10:06:00,
2013-04-27 03:11:00,53.8,-6.2,29.92,SW,219,0.0,0.0,8,0.00,,---,0.00,VWS V14.01,2013-04-27 10:11:00,
2013-04-27 03:16:00,53.4,-6.4,29.92,SW,219,0.0,0.0,8,0.00,,---,0.00,VWS V14.01,2013-04-27 10:16:00,
2013-04-27 03:21:00,53.4,-6.4,29.92,SW,219,0.0,0.0,8,0.00,,---,0.00,VWS V14.01,2013-04-27 10:21:00,
2013-04-27 03:26:00,53.4,-6.4,29.92,SW,219,0.0,0.0,8,0.00,,---,0.00,VWS V14.01,2013-04-27 10:26:00,
2013-04-27 03:31:00,53.1,-6.7,29.92,SW,219,0.0,0.0,8,0.00,,---,0.00,VWS V14.01,2013-04-27 10:31:00,
2013-04-27 03:36:00,52.7,-7.0,29.92,SW,219,0.0,0.0,8,0.00,,---,0.00,VWS V14.01,2013-04-27 10:36:00,
2013-04-27 03:41:00,52.0,-7.5,29.95,SW,219,0.0,0.0,8,0.00,,---,0.00,VWS V14.01,2013-04-27 10:41:00,
2013-04-27 03:46:00,51.6,-5.4,29.95,SW,219,0.0,0.0,9,0.00,,---,0.00,VWS V14.01,2013-04-27 10:46:00,
2013-04-27 03:51:00,52.7,-7.0,29.95,SW,219,0.0,0.0,8,0.00,,---,0.00,VWS V14.01,2013-04-27 10:51:00,
2013-04-27 03:56:00,53.4,-6.4,29.95,SW,219,0.0,0.0,8,0.00,,---,0.00,VWS V14.01,2013-04-27 10:56:00,
2013-04-27 04:01:00,53.6,-6.3,29.95,SW,219,0.0,0.0,8,0.00,,---,0.00,VWS V14.01,2013-04-27 11:01:00,
2013-04-27 04:06:00,53.2,-6.6,29.95,SW,219,0.0,0.0,8,0.00,,---,0.00,VWS V14.01,2013-04-27 11:06:00,
2013-04-27 04:11:00,53.1,-6.7,29.95,SW,218,0.0,0.0,8,0.00,,---,0.00,VWS V14.01,2013-04-27 11:11:00,
2013-04-27 04:16:00,53.1,-6.7,29.95,SW,218,0.0,0.0,8,0.00,,---,0.00,VWS V14.01,2013-04-27 11:16:00,
2013-04-27 04:21:00,52.9,-6.8,29.95,SW,218,0.0,0.0,8,0.00,,---,0.00,VWS V14.01,2013-04-27 11:21:00,
2013-04-27 04:27:00,52.9,-6.8,29.95,SW,218,0.0,0.0,8,0.00,,---,0.00,VWS V14.01,2013-04-27 11:27:00,
2013-04-27 04:32:00,52.5,-7.1,29.95,SW,218,0.0,0.0,8,0.00,,---,0.00,VWS V14.01,2013-04-27 11:32:00,
2013-04-27 04:37:00,51.6,-5.4,29.95,SW,218,0.0,0.0,9,0.00,,---,0.00,VWS V14.01,2013-04-27 11:37:00,
2013-04-27 04:42:00,51.6,-5.4,29.95,SW,218,0.0,0.0,9,0.00,,---,0.00,VWS V14.01,2013-04-27 11:42:00,
2013-04-27 04:47:00,52.2,-7.4,29.95,SW,218,0.0,0.0,8,0.00,,---,0.00,VWS V14.01,2013-04-27 11:47:00,
2013-04-27 04:52:00,52.3,-7.2,29.95,SW,218,0.0,0.0,8,0.00,,---,0.00,VWS V14.01,2013-04-27 11:52:00,
2013-04-27 04:57:00,52.7,-7.0,29.95,SW,218,0.0,0.0,8,0.00,,---,0.00,VWS V14.01,2013-04-27 11:57:00,
2013-04-27 05:02:00,53.1,-6.7,29.95,SW,218,0.0,0.0,8,0.00,,---,0.00,VWS V14.01,2013-04-27 12:02:00,
2013-04-27 05:07:00,52.3,-7.2,29.95,SW,218,0.0,0.0,8,0.00,,---,0.00,VWS V14.01,2013-04-27 12:07:00,
2013-04-27 05:12:00,51.1,-5.8,29.95,SW,218,0.0,0.0,9,0.00,,---,0.00,VWS V14.01,2013-04-27 12:12:00,
2013-04-27 05:17:00,50.9,-5.9,29.95,SW,218,0.0,0.0,9,0.00,,---,0.00,VWS V14.01,2013-04-27 12:17:00,
2013-04-27 05:22:00,50.2,-6.5,29.95,SW,218,0.0,0.0,9,0.00,,---,0.00,VWS V14.01,2013-04-27 12:22:00,
2013-04-27 05:27:00,50.5,-6.2,29.95,SW,218,0.0,0.0,9,0.00,,---,0.00,VWS V14.01,2013-04-27 12:27:00,
2013-04-27 05:32:00,50.7,-6.1,29.95,SW,218,0.0,0.0,9,0.00,,---,0.00,VWS V14.01,2013-04-27 12:32:00,
2013-04-27 05:37:00,50.4,-6.3,29.95,SW,218,0.0,0.0,9,0.00,,---,0.00,VWS V14.01,2013-04-27 12:37:00,
2013-04-27 05:42:00,50.4,-6.3,29.95,SW,218,0.0,0.0,9,0.00,,---,0.00,VWS V14.01,2013-04-27 12:42:00,
2013-04-27 05:47:00,50.0,-6.6,29.95,SW,218,0.0,0.0,9,0.00,,---,0.00,VWS V14.01,2013-04-27 12:47:00,
2013-04-27 05:52:00,49.8,-6.7,29.95,SW,218,0.0,0.0,9,0.00,,---,0.00,VWS V14.01,2013-04-27 12:52:00,
2013-04-27 05:57:00,49.8,-6.7,29.95,SW,218,0.0,0.0,9,0.00,,---,0.00,VWS V14.01,2013-04-27 12:57:00,
2013-04-27 06:02:00,49.6,-6.9,29.95,SW,218,0.0,0.0,9,0.00,,---,0.00,VWS V14.01,2013-04-27 13:02:00,
2013-04-27 06:07:00,49.6,-6.9,29.95,SW,218,0.0,0.0,9,0.00,,---,0.00,VWS V14.01,2013-04-27 13:07:00,
2013-04-27 06:12:00,49.6,-6.9,29.95,SW,218,0.0,0.0,9,0.00,,---,0.00,VWS V14.01,2013-04-27 13:12:00,
2013-04-27 06:17:00,50.2,-6.5,29.95,SW,218,0.0,0.0,9,0.00,,---,0.00,VWS V14.01,2013-04-27 13:17:00,
2013-04-27 06:22:00,51.1,-5.8,29.95,SW,218,0.0,0.0,9,0.00,,---,0.00,VWS V14.01,2013-04-27 13:22:00,
2013-04-27 06:27:00,51.1,-5.8,29.95,SW,218,0.0,0.0,9,0.00,,---,0.00,VWS V14.01,2013-04-27 13:27:00,
2013-04-27 06:32:00,52.3,-7.2,29.95,SW,218,0.0,0.0,8,0.00,,---,0.00,VWS V14.01,2013-04-27 13:32:00,
2013-04-27 06:37:00,53.2,-6.6,29.95,SW,218,0.0,0.0,8,0.00,,---,0.00,VWS V14.01,2013-04-27 13:37:00,
2013-04-27 06:42:00,53.2,-6.6,29.95,SW,218,0.0,0.0,8,0.00,,---,0.00,VWS V14.01,2013-04-27 13:42:00,
2013-04-27 06:48:00,53.2,-6.6,29.95,SW,218,0.0,0.0,8,0.00,,---,0.00,VWS V14.01,2013-04-27 13:48:00,
2013-04-27 06:53:00,53.2,-6.6,29.95,SW,219,0.0,0.0,8,0.00,,---,0.00,VWS V14.01,2013-04-27 13:53:00,
2013-04-27 06:59:00,53.2,-6.6,29.95,SW,219,0.0,0.0,8,0.00,,---,0.00,VWS V14.01,2013-04-27 13:59:00,
2013-04-27 07:04:00,53.2,-6.6,29.95,SW,219,0.0,0.0,8,0.00,,---,0.00,VWS V14.01,2013-04-27 14:04:00,
2013-04-27 07:09:00,53.2,-6.6,29.95,SW,219,0.0,0.0,8,0.00,,---,0.00,VWS V14.01,2013-04-27 14:09:00,
2013-04-27 07:14:00,58.5,-5.4,29.98,SW,219,0.0,0.0,7,0.00,,---,0.00,VWS V14.01,2013-04-27 14:14:00,
2013-04-27 07:19:00,58.5,-5.4,29.98,SW,219,0.0,0.0,7,0.00,,---,0.00,VWS V14.01,2013-04-27 14:19:00,
2013-04-27 07:24:00,58.5,-5.4,29.98,SW,219,0.0,0.0,7,0.00,,---,0.00,VWS V14.01,2013-04-27 14:24:00,
2013-04-27 07:29:00,60.3,-4.1,29.98,SW,219,0.0,0.0,7,0.00,,---,0.00,VWS V14.01,2013-04-27 14:29:00,
2013-04-27 07:34:00,61.0,-6.7,29.98,SW,219,0.0,0.0,6,0.00,,---,0.00,VWS V14.01,2013-04-27 14:34:00,
2013-04-27 07:39:00,61.0,-6.7,29.98,SW,219,0.0,0.0,6,0.00,,---,0.00,VWS V14.01,2013-04-27 14:39:00,
2013-04-27 07:44:00,61.0,-6.7,29.98,SW,219,0.0,0.0,6,0.00,,---,0.00,VWS V14.01,2013-04-27 14:44:00,
2013-04-27 07:49:00,61.0,-6.7,29.98,SW,214,0.0,0.0,6,0.00,,---,0.00,VWS V14.01,2013-04-27 14:49:00,
2013-04-27 07:54:00,63.0,-5.3,29.98,SW,214,0.0,0.0,6,0.00,,---,0.00,VWS V14.01,2013-04-27 14:54:00,
2013-04-27 07:59:00,63.5,-4.9,29.98,SSW,213,0.0,0.0,6,0.00,,---,0.00,VWS V14.01,2013-04-27 14:59:00,
2013-04-27 08:04:00,63.5,-4.9,29.98,SSW,208,0.0,0.0,6,0.00,,---,0.00,VWS V14.01,2013-04-27 15:04:00,
2013-04-27 08:09:00,63.5,-4.9,29.98,SSW,195,0.0,0.0,6,0.00,,---,0.00,VWS V14.01,2013-04-27 15:09:00,
2013-04-27 08:14:00,64.6,-7.9,29.98,South,183,0.0,0.0,5,0.00,,---,0.00,VWS V14.01,2013-04-27 15:14:00,
2013-04-27 08:19:00,65.5,-7.2,29.98,South,183,0.0,0.0,5,0.00,,---,0.00,VWS V14.01,2013-04-27 15:19:00,
2013-04-27 08:24:00,65.7,-7.1,29.98,South,183,0.0,0.0,5,0.00,,---,0.00,VWS V14.01,2013-04-27 15:24:00,
2013-04-27 08:29:00,65.7,-7.1,29.98,South,178,0.0,0.0,5,0.00,,---,0.00,VWS V14.01,2013-04-27 15:29:00,
2013-04-27 08:34:00,66.9,-6.2,29.98,SSE,152,0.0,0.0,5,0.00,,---,0.00,VWS V14.01,2013-04-27 15:34:00,
2013-04-27 08:39:00,67.3,-6.0,29.98,SSE,150,0.0,0.0,5,0.00,,---,0.00,VWS V14.01,2013-04-27 15:39:00,
2013-04-27 08:44:00,67.3,-6.0,29.98,SSE,150,0.0,0.0,5,0.00,,---,0.00,VWS V14.01,2013-04-27 15:44:00,
2013-04-27 08:49:00,67.5,-5.8,29.98,SSE,149,0.0,0.0,5,0.00,,---,0.00,VWS V14.01,2013-04-27 15:49:00,
2013-04-27 08:54:00,68.4,-5.2,29.98,SSE,147,0.0,0.0,5,0.00,,---,0.00,VWS V14.01,2013-04-27 15:54:00,
2013-04-27 08:59:00,68.4,-5.2,29.98,SSE,149,0.0,0.0,5,0.00,,---,0.00,VWS V14.01,2013-04-27 15:59:00,
2013-04-27 09:04:00,69.3,-4.6,29.98,SSE,149,0.0,0.0,5,0.00,,---,0.00,VWS V14.01,2013-04-27 16:04:00,
2013-04-27 09:09:00,69.4,-4.4,29.98,SW,231,0.0,0.0,5,0.00,,---,0.00,VWS V14.01,2013-04-27 16:09:00,
2013-04-27 09:14:00,69.4,-4.4,29.98,NW,319,0.0,0.0,5,0.00,,---,0.00,VWS V14.01,2013-04-27 16:14:00,
2013-04-27 09:19:00,69.4,-4.4,29.95,WNW,283,4.0,4.0,5,0.00,,---,0.00,VWS V14.01,2013-04-27 16:19:00,
2013-04-27 09:24:00,70.3,-8.4,29.95,WNW,295,0.0,0.0,4,0.00,,---,0.00,VWS V14.01,2013-04-27 16:24:00,
2013-04-27 09:30:00,70.7,-8.1,29.95,NNW,331,0.0,0.0,4,0.00,,---,0.00,VWS V14.01,2013-04-27 16:30:00,
2013-04-27 09:35:00,71.1,-7.9,29.95,WNW,289,2.7,5.8,4,0.00,,---,0.00,VWS V14.01,2013-04-27 16:35:00,
2013-04-27 09:40:00,71.8,-7.4,29.95,WNW,284,0.0,0.0,4,0.00,,---,0.00,VWS V14.01,2013-04-27 16:40:00,
2013-04-27 09:45:00,71.8,-7.4,29.95,NNW,331,0.0,0.0,4,0.00,,---,0.00,VWS V14.01,2013-04-27 16:45:00,
2013-04-27 09:50:00,71.8,-7.4,29.95,NNW,340,0.0,0.0,4,0.00,,---,0.00,VWS V14.01,2013-04-27 16:50:00,
2013-04-27 09:55:00,71.8,-7.4,29.95,NW,304,4.0,4.0,4,0.00,,---,0.00,VWS V14.01,2013-04-27 16:55:00,
2013-04-27 10:00:00,71.8,-7.4,29.95,North,1,0.0,0.0,4,0.00,,---,0.00,VWS V14.01,2013-04-27 17:00:00,
2013-04-27 10:05:00,71.8,-7.4,29.95,NW,321,0.0,0.0,4,0.00,,---,0.00,VWS V14.01,2013-04-27 17:05:00,
2013-04-27 10:10:00,71.8,-7.4,29.95,NW,310,0.0,0.0,4,0.00,,---,0.00,VWS V14.01,2013-04-27 17:10:00,
2013-04-27 10:15:00,71.8,-7.4,29.95,NW,314,2.2,2.2,4,0.00,,---,0.00,VWS V14.01,2013-04-27 17:15:00,
2013-04-27 10:20:00,71.8,-7.4,29.95,NW,306,4.0,4.0,4,0.00,,---,0.00,VWS V14.01,2013-04-27 17:20:00,
2013-04-27 10:25:00,71.8,-7.4,29.95,NW,320,0.0,0.0,4,0.00,,---,0.00,VWS V14.01,2013-04-27 17:25:00,
2013-04-27 10:30:00,71.8,-7.4,29.95,NW,316,0.0,0.0,4,0.00,,---,0.00,VWS V14.01,2013-04-27 17:30:00,
2013-04-27 10:35:00,77.9,-9.1,29.95,NW,316,0.0,0.0,3,0.00,,---,0.00,VWS V14.01,2013-04-27 17:35:00,
2013-04-27 10:40:00,77.9,-9.1,29.95,NNW,337,0.0,0.0,3,0.00,,---,0.00,VWS V14.01,2013-04-27 17:40:00,
2013-04-27 10:45:00,77.9,-9.1,29.95,NNW,336,0.0,0.0,3,0.00,,---,0.00,VWS V14.01,2013-04-27 17:45:00,
2013-04-27 10:50:00,79.0,-16.5,29.95,NNW,339,0.0,0.0,2,0.00,,---,0.00,VWS V14.01,2013-04-27 17:50:00,
2013-04-27 10:55:00,79.0,-16.5,29.95,North,0,0.0,0.0,2,0.00,,---,0.00,VWS V14.01,2013-04-27 17:55:00,
2013-04-27 11:00:00,80.1,-15.8,29.95,North,0,0.0,0.0,2,0.00,,---,0.00,VWS V14.01,2013-04-27 18:00:00,
2013-04-27 11:05:00,80.2,-15.6,29.95,North,353,2.2,3.1,2,0.00,,---,0.00,VWS V14.01,2013-04-27 18:05:00,
2013-04-27 11:10:00,80.6,-15.4,29.95,NW,310,0.0,0.0,2,0.00,,---,0.00,VWS V14.01,2013-04-27 18:10:00,
2013-04-27 11:15:00,81.0,-15.2,29.92,ESE,123,3.1,3.1,2,0.00,,---,0.00,VWS V14.01,2013-04-27 18:15:00,
2013-04-27 11:20:00,81.1,-15.1,29.92,NNW,341,4.9,4.9,2,0.00,,---,0.00,VWS V14.01,2013-04-27 18:20:00,
2013-04-27 11:25:00,82.4,-14.2,29.92,NNE,18,4.9,4.9,2,0.00,,---,0.00,VWS V14.01,2013-04-27 18:25:00,
2013-04-27 11:30:00,82.4,-14.2,29.92,West,267,4.9,4.9,2,0.00,,---,0.00,VWS V14.01,2013-04-27 18:30:00,
2013-04-27 11:35:00,82.4,-14.2,29.92,WNW,285,5.4,5.8,2,0.00,,---,0.00,VWS V14.01,2013-04-27 18:35:00,
2013-04-27 11:40:00,82.4,-14.2,29.92,West,279,0.0,0.0,2,0.00,,---,0.00,VWS V14.01,2013-04-27 18:40:00,
2013-04-27 11:45:00,82.4,-14.2,29.92,NE,37,5.8,5.8,2,0.00,,---,0.00,VWS V14.01,2013-04-27 18:45:00,
2013-04-27 11:50:00,82.9,-13.9,29.92,East,91,0.0,0.0,2,0.00,,---,0.00,VWS V14.01,2013-04-27 18:50:00,
2013-04-27 11:55:00,83.3,-13.7,29.92,SSE,155,0.0,0.0,2,0.00,,---,0.00,VWS V14.01,2013-04-27 18:55:00,
2013-04-27 12:00:00,83.3,-13.7,29.92,SSW,208,0.0,0.0,2,0.00,,---,0.00,VWS V14.01,2013-04-27 19:00:00,
2013-04-27 12:05:00,84.0,-13.2,29.92,North,350,7.2,7.2,2,0.00,,---,0.00,VWS V14.01,2013-04-27 19:05:00,
2013-04-27 12:10:00,83.8,-13.3,29.92,NE,39,8.3,8.3,2,0.00,,---,0.00,VWS V14.01,2013-04-27 19:10:00,
2013-04-27 12:16:00,83.8,-13.3,29.92,NE,42,0.0,4.0,2,0.00,,---,0.00,VWS V14.01,2013-04-27 19:16:00,
2013-04-27 12:21:00,84.0,-13.2,29.89,NE,48,8.3,8.7,2,0.00,,---,0.00,VWS V14.01,2013-04-27 19:21:00,
2013-04-27 12:26:00,83.8,-13.3,29.89,ESE,107,0.0,0.0,2,0.00,,---,0.00,VWS V14.01,2013-04-27 19:26:00,
2013-04-27 12:31:00,83.5,-13.6,29.89,ENE,78,0.0,0.0,2,0.00,,---,0.00,VWS V14.01,2013-04-27 19:31:00,
2013-04-27 12:36:00,84.2,-13.1,29.89,NNE,21,10.5,10.5,2,0.00,,---,0.00,VWS V14.01,2013-04-27 19:36:00,
2013-04-27 12:41:00,84.0,-13.2,29.89,North,3,0.0,0.0,2,0.00,,---,0.00,VWS V14.01,2013-04-27 19:41:00,
2013-04-27 12:46:00,83.8,-13.3,29.89,North,353,0.0,0.0,2,0.00,,---,0.00,VWS V14.01,2013-04-27 19:46:00,
2013-04-27 12:51:00,84.2,-13.1,29.89,NNW,332,7.6,8.3,2,0.00,,---,0.00,VWS V14.01,2013-04-27 19:51:00,
2013-04-27 12:56:00,85.3,-12.4,29.89,NE,53,3.1,3.1,2,0.00,,---,0.00,VWS V14.01,2013-04-27 19:56:00,
2013-04-27 13:01:00,85.1,-12.5,29.89,East,101,3.6,4.9,2,0.00,,---,0.00,VWS V14.01,2013-04-27 20:01:00,
2013-04-27 13:06:00,84.4,-13.0,29.89,ENE,69,4.0,4.0,2,0.00,,---,0.00,VWS V14.01,2013-04-27 20:06:00,
2013-04-27 13:11:00,84.4,-13.0,29.89,NE,44,5.4,5.4,2,0.00,,---,0.00,VWS V14.01,2013-04-27 20:11:00,
2013-04-27 13:16:00,84.6,-12.9,29.89,ENE,76,0.0,0.0,2,0.00,,---,0.00,VWS V14.01,2013-04-27 20:16:00,
2013-04-27 13:21:00,85.3,-12.4,29.86,NW,321,5.8,5.8,2,0.00,,---,0.00,VWS V14.01,2013-04-27 20:21:00,
2013-04-27 13:26:00,85.3,-12.4,29.86,WNW,284,3.1,6.3,2,0.00,,---,0.00,VWS V14.01,2013-04-27 20:26:00,
2013-04-27 13:31:00,85.1,-12.5,29.86,NNW,333,0.0,0.0,2,0.00,,---,0.00,VWS V14.01,2013-04-27 20:31:00,
2013-04-27 13:36:00,85.5,-12.3,29.86,West,271,0.0,0.0,2,0.00,,---,0.00,VWS V14.01,2013-04-27 20:36:00,
2013-04-27 13:41:00,86.0,-11.9,29.86,East,99,0.0,0.0,2,0.00,,---,0.00,VWS V14.01,2013-04-27 20:41:00,
2013-04-27 13:46:00,86.7,-11.5,29.86,North,353,0.0,0.0,2,0.00,,---,0.00,VWS V14.01,2013-04-27 20:46:00,
2013-04-27 13:51:00,87.1,-11.3,29.86,NNW,340,5.4,5.4,2,0.00,,---,0.00,VWS V14.01,2013-04-27 20:51:00,
2013-04-27 13:56:00,87.1,-11.3,29.86,North,357,5.4,5.4,2,0.00,,---,0.00,VWS V14.01,2013-04-27 20:56:00,
2013-04-27 14:01:00,86.4,-11.7,29.86,North,7,3.1,3.1,2,0.00,,---,0.00,VWS V14.01,2013-04-27 21:01:00,
2013-04-27 14:06:00,86.5,-11.6,29.86,NNE,15,4.0,5.4,2,0.00,,---,0.00,VWS V14.01,2013-04-27 21:06:00,
2013-04-27 14:11:00,86.4,-11.7,29.86,North,2,4.0,5.4,2,0.00,,---,0.00,VWS V14.01,2013-04-27 21:11:00,
2013-04-27 14:16:00,86.4,-11.7,29.86,South,190,3.1,3.1,2,0.00,,---,0.00,VWS V14.01,2013-04-27 21:16:00,
2013-04-27 14:21:00,86.9,-11.4,29.86,West,270,17.0,17.0,2,0.00,,---,0.00,VWS V14.01,2013-04-27 21:21:00,
2013-04-27 14:26:00,86.9,-11.4,29.86,NNW,328,4.5,4.9,2,0.00,,---,0.00,VWS V14.01,2013-04-27 21:26:00,
2013-04-27 14:31:00,86.0,-11.9,29.86,NE,50,2.7,5.4,2,0.00,,---,0.00,VWS V14.01,2013-04-27 21:31:00,
2013-04-27 14:36:00,86.4,-11.7,29.86,NNW,348,6.3,6.3,2,0.00,,---,0.00,VWS V14.01,2013-04-27 21:36:00,
2013-04-27 14:41:00,86.5,-11.6,29.86,WSW,237,0.0,5.8,2,0.00,,---,0.00,VWS V14.01,2013-04-27 21:41:00,
2013-04-27 14:46:00,86.5,-11.6,29.83,West,277,0.0,3.1,2,0.00,,---,0.00,VWS V14.01,2013-04-27 21:46:00,
2013-04-27 14:52:00,86.5,-11.6,29.83,West,263,3.1,3.1,2,0.00,,---,0.00,VWS V14.01,2013-04-27 21:52:00,
2013-04-27 14:57:00,86.9,-11.4,29.83,NNW,348,5.4,8.3,2,0.00,,---,0.00,VWS V14.01,2013-04-27 21:57:00,
2013-04-27 15:02:00,86.7,-11.5,29.83,NE,49,4.0,7.6,2,0.00,,---,0.00,VWS V14.01,2013-04-27 22:02:00,
2013-04-27 15:07:00,86.7,-11.5,29.80,NNE,13,3.6,8.1,2,0.00,,---,0.00,VWS V14.01,2013-04-27 22:07:00,
2013-04-27 15:12:00,87.1,-11.3,29.80,NW,321,13.2,13.2,2,0.00,,---,0.00,VWS V14.01,2013-04-27 22:12:00,
2013-04-27 15:17:00,87.4,-11.0,29.80,WSW,241,8.7,8.7,2,0.00,,---,0.00,VWS V14.01,2013-04-27 22:17:00,
2013-04-27 15:22:00,87.3,-11.1,29.80,North,0,5.4,8.7,2,0.00,,---,0.00,VWS V14.01,2013-04-27 22:22:00,
2013-04-27 15:27:00,87.1,-11.3,29.80,WNW,288,13.2,13.2,2,0.00,,---,0.00,VWS V14.01,2013-04-27 22:27:00,
2013-04-27 15:32:00,86.5,-11.6,29.80,North,10,3.1,3.1,2,0.00,,---,0.00,VWS V14.01,2013-04-27 22:32:00,
2013-04-27 15:37:00,86.5,-11.6,29.83,NW,311,10.5,10.5,2,0.00,,---,0.00,VWS V14.01,2013-04-27 22:37:00,
2013-04-27 15:42:00,86.9,-11.4,29.80,West,279,7.6,7.6,2,0.00,,---,0.00,VWS V14.01,2013-04-27 22:42:00,
2013-04-27 15:47:00,86.7,-11.5,29.80,NW,311,7.2,7.2,2,0.00,,---,0.00,VWS V14.01,2013-04-27 22:47:00,
2013-04-27 15:52:00,86.7,-11.5,29.80,WSW,258,5.8,5.8,2,0.00,,---,0.00,VWS V14.01,2013-04-27 22:52:00,
2013-04-27 15:57:00,86.7,-11.5,29.80,West,262,8.3,8.3,2,0.00,,---,0.00,VWS V14.01,2013-04-27 22:57:00,
2013-04-27 16:02:00,86.7,-11.5,29.80,West,276,4.5,4.5,2,0.00,,---,0.00,VWS V14.01,2013-04-27 23:02:00,
2013-04-27 16:07:00,87.1,-11.3,29.80,WNW,302,8.3,8.3,2,0.00,,---,0.00,VWS V14.01,2013-04-27 23:07:00,
2013-04-27 16:12:00,87.1,-11.3,29.80,NW,317,8.7,8.7,2,0.00,,---,0.00,VWS V14.01,2013-04-27 23:12:00,
2013-04-27 16:17:00,87.1,-11.3,29.80,WNW,295,3.6,3.6,2,0.00,,---,0.00,VWS V14.01,2013-04-27 23:17:00,
2013-04-27 16:22:00,87.1,-11.3,29.80,WNW,293,5.8,5.8,2,0.00,,---,0.00,VWS V14.01,2013-04-27 23:22:00,
2013-04-27 16:27:00,86.7,-11.5,29.80,NW,318,2.7,2.7,2,0.00,,---,0.00,VWS V14.01,2013-04-27 23:27:00,
2013-04-27 16:32:00,86.7,-11.5,29.80,West,275,6.3,6.3,2,0.00,,---,0.00,VWS V14.01,2013-04-27 23:32:00,
2013-04-27 16:37:00,86.5,-11.6,29.80,West,276,8.7,11.0,2,0.00,,---,0.00,VWS V14.01,2013-04-27 23:37:00,
2013-04-27 16:42:00,86.4,-11.7,29.80,NW,311,3.6,6.3,2,0.00,,---,0.00,VWS V14.01,2013-04-27 23:42:00,
2013-04-27 16:47:00,86.4,-11.7,29.80,WNW,292,0.0,0.0,2,0.00,,---,0.00,VWS V14.01,2013-04-27 23:47:00,
2013-04-27 16:52:00,86.2,-11.8,29.80,WNW,302,0.0,0.0,2,0.00,,---,0.00,VWS V14.01,2013-04-27 23:52:00,
2013-04-27 16:57:00,86.0,-11.9,29.80,NW,326,0.0,0.0,2,0.00,,---,0.00,VWS V14.01,2013-04-27 23:57:00,
2013-04-27 17:02:00,85.8,-12.1,29.80,North,0,0.0,0.0,2,0.00,,---,0.00,VWS V14.01,2013-04-28 00:02:00,
2013-04-27 17:07:00,85.6,-12.2,29.80,West,260,0.0,0.0,2,0.00,,---,0.00,VWS V14.01,2013-04-28 00:07:00,
2013-04-27 17:13:00,85.8,-12.1,29.80,WSW,246,0.0,0.0,2,0.00,,---,0.00,VWS V14.01,2013-04-28 00:13:00,
2013-04-27 17:18:00,85.6,-12.2,29.80,WNW,282,0.0,0.0,2,0.00,,---,0.00,VWS V14.01,2013-04-28 00:18:00,
2013-04-27 17:23:00,85.6,-12.2,29.80,West,281,0.0,0.0,2,0.00,,---,0.00,VWS V14.01,2013-04-28 00:23:00,
2013-04-27 17:28:00,85.6,-12.2,29.80,WNW,302,0.0,0.0,2,0.00,,---,0.00,VWS V14.01,2013-04-28 00:28:00,
2013-04-27 17:33:00,85.3,-12.4,29.80,West,264,0.0,0.0,2,0.00,,---,0.00,VWS V14.01,2013-04-28 00:33:00,
2013-04-27 17:38:00,84.9,-12.6,29.80,West,269,0.0,0.0,2,0.00,,---,0.00,VWS V14.01,2013-04-28 00:38:00,
2013-04-27 17:43:00,84.6,-12.9,29.80,NW,305,0.0,0.0,2,0.00,,---,0.00,VWS V14.01,2013-04-28 00:43:00,
2013-04-27 17:48:00,84.2,-13.1,29.80,WNW,288,0.0,0.0,2,0.00,,---,0.00,VWS V14.01,2013-04-28 00:48:00,
2013-04-27 17:53:00,84.4,-13.0,29.80,West,280,0.0,0.0,2,0.00,,---,0.00,VWS V14.01,2013-04-28 00:53:00,
2013-04-27 17:58:00,84.2,-13.1,29.80,West,267,0.0,0.0,2,0.00,,---,0.00,VWS V14.01,2013-04-28 00:58:00,
2013-04-27 18:03:00,84.0,-13.2,29.77,West,262,0.0,0.0,2,0.00,,---,0.00,VWS V14.01,2013-04-28 01:03:00,
2013-04-27 18:08:00,83.8,-13.3,29.77,West,265,0.0,0.0,2,0.00,,---,0.00,VWS V14.01,2013-04-28 01:08:00,
2013-04-27 18:13:00,83.8,-13.3,29.77,WNW,282,0.0,0.0,2,0.00,,---,0.00,VWS V14.01,2013-04-28 01:13:00,
2013-04-27 18:18:00,83.8,-13.3,29.80,West,272,0.0,0.0,2,0.00,,---,0.00,VWS V14.01,2013-04-28 01:18:00,
2013-04-27 18:23:00,82.8,-14.0,29.77,West,271,0.0,0.0,2,0.00,,---,0.00,VWS V14.01,2013-04-28 01:23:00,
2013-04-27 18:28:00,82.4,-14.2,29.77,WNW,298,0.0,0.0,2,0.00,,---,0.00,VWS V14.01,2013-04-28 01:28:00,
2013-04-27 18:33:00,81.9,-14.6,29.77,WNW,287,5.8,6.3,2,0.00,,---,0.00,VWS V14.01,2013-04-28 01:33:00,
2013-04-27 18:38:00,81.9,-14.6,29.77,WSW,258,5.4,5.4,2,0.00,,---,0.00,VWS V14.01,2013-04-28 01:38:00,
2013-04-27 18:43:00,80.8,-15.3,29.77,WSW,256,4.0,5.8,2,0.00,,---,0.00,VWS V14.01,2013-04-28 01:43:00,
2013-04-27 18:48:00,79.3,-16.2,29.77,WSW,253,4.0,4.0,2,0.00,,---,0.00,VWS V14.01,2013-04-28 01:48:00,
2013-04-27 18:53:00,79.0,-16.5,29.77,WSW,255,0.0,0.0,2,0.00,,---,0.00,VWS V14.01,2013-04-28 01:53:00,
2013-04-27 18:58:00,78.1,-9.0,29.77,WSW,252,0.0,0.0,3,0.00,,---,0.00,VWS V14.01,2013-04-28 01:58:00,
2013-04-27 19:03:00,77.4,-9.4,29.77,WSW,249,0.0,0.0,3,0.00,,---,0.00,VWS V14.01,2013-04-28 02:03:00,
2013-04-27 19:09:00,76.1,-10.3,29.77,WSW,246,0.0,0.0,3,0.00,,---,0.00,VWS V14.01,2013-04-28 02:09:00,
2013-04-27 19:14:00,75.2,-10.9,29.77,WSW,241,2.7,2.7,3,0.00,,---,0.00,VWS V14.01,2013-04-28 02:14:00,
2013-04-27 19:19:00,74.7,-11.2,29.77,WSW,241,0.0,0.0,3,0.00,,---,0.00,VWS V14.01,2013-04-28 02:19:00,
2013-04-27 19:24:00,74.7,-11.2,29.77,WSW,248,4.0,4.0,3,0.00,,---,0.00,VWS V14.01,2013-04-28 02:24:00,
2013-04-27 19:29:00,73.8,-11.9,29.77,WSW,251,0.0,0.0,3,0.00,,---,0.00,VWS V14.01,2013-04-28 02:29:00,
2013-04-27 19:34:00,73.4,-12.1,29.77,WSW,249,0.0,0.0,3,0.00,,---,0.00,VWS V14.01,2013-04-28 02:34:00,
2013-04-27 19:39:00,73.2,-6.4,29.77,WSW,244,2.2,3.6,4,0.00,,---,0.00,VWS V14.01,2013-04-28 02:39:00,
2013-04-27 19:44:00,73.0,-6.5,29.77,West,259,5.8,5.8,4,0.00,,---,0.00,VWS V14.01,2013-04-28 02:44:00,
2013-04-27 19:49:00,73.0,-6.5,29.77,West,260,3.1,3.1,4,0.00,,---,0.00,VWS V14.01,2013-04-28 02:49:00,
2013-04-27 19:54:00,73.0,-6.5,29.77,WSW,252,4.0,4.0,4,0.00,,---,0.00,VWS V14.01,2013-04-28 02:54:00,
2013-04-27 19:59:00,73.6,-12.0,29.77,West,259,2.2,2.2,3,0.00,,---,0.00,VWS V14.01,2013-04-28 02:59:00,
2013-04-27 20:04:00,73.6,-12.0,29.77,SW,234,0.0,0.0,3,0.00,,---,0.00,VWS V14.01,2013-04-28 03:04:00,
2013-04-27 20:09:00,73.4,-12.1,29.77,SW,235,3.1,4.0,3,0.00,,---,0.00,VWS V14.01,2013-04-28 03:09:00,
2013-04-27 20:14:00,73.4,-12.1,29.80,WSW,243,2.2,2.2,3,0.00,,---,0.00,VWS V14.01,2013-04-28 03:14:00,
2013-04-27 20:19:00,73.0,-6.5,29.80,WSW,254,5.4,5.4,4,0.00,,---,0.00,VWS V14.01,2013-04-28 03:19:00,
2013-04-27 20:24:00,73.0,-6.5,29.80,WSW,250,2.7,2.7,4,0.00,,---,0.00,VWS V14.01,2013-04-28 03:24:00,
2013-04-27 20:29:00,73.0,-6.5,29.80,WNW,297,5.4,5.4,4,0.00,,---,0.00,VWS V14.01,2013-04-28 03:29:00,
2013-04-27 20:34:00,73.0,-6.5,29.80,West,266,3.6,3.6,4,0.00,,---,0.00,VWS V14.01,2013-04-28 03:34:00,
2013-04-27 20:39:00,71.4,-7.6,29.80,West,268,0.0,0.0,4,0.00,,---,0.00,VWS V14.01,2013-04-28 03:39:00,
2013-04-27 20:44:00,70.7,-8.1,29.80,West,269,0.0,0.0,4,0.00,,---,0.00,VWS V14.01,2013-04-28 03:44:00,
2013-04-27 20:49:00,70.2,-8.5,29.80,West,270,0.0,0.0,4,0.00,,---,0.00,VWS V14.01,2013-04-28 03:49:00,
2013-04-27 20:54:00,70.2,-8.5,29.80,West,270,0.0,0.0,4,0.00,,---,0.00,VWS V14.01,2013-04-28 03:54:00,
2013-04-27 20:59:00,68.9,-4.8,29.80,WNW,298,5.4,5.4,5,0.00,,---,0.00,VWS V14.01,2013-04-28 03:59:00,
2013-04-27 21:01:00,68.9,-4.8,29.80,WNW,294,4.0,4.0,5,0.00,,---,0.00,VWS V14.01,2013-04-28 04:01:00,
2013-04-27 21:02:00,69.1,-4.7,29.80,WNW,287,3.1,3.1,5,0.00,,---,0.00,VWS V14.01,2013-04-28 04:02:00,
2013-04-27 21:03:00,69.1,-4.7,29.80,West,275,5.4,5.4,5,0.00,,---,0.00,VWS V14.01,2013-04-28 04:03:00,
2013-04-27 21:04:00,69.1,-4.7,29.80,West,275,5.4,5.4,5,0.00,,---,0.00,VWS V14.01,2013-04-28 04:04:00,
2013-04-27 21:09:00,69.1,-4.7,29.80,West,271,0.0,0.0,5,0.00,,---,0.00,VWS V14.01,2013-04-28 04:09:00,
2013-04-27 21:14:00,69.1,-4.7,29.83,West,271,0.0,0.0,5,0.00,,---,0.00,VWS V14.01,2013-04-28 04:14:00,
2013-04-27 21:19:00,69.4,-4.4,29.83,WNW,285,0.0,0.0,5,0.00,,---,0.00,VWS V14.01,2013-04-28 04:19:00,
2013-04-27 21:24:00,69.4,-4.4,29.83,WNW,285,0.0,0.0,5,0.00,,---,0.00,VWS V14.01,2013-04-28 04:24:00,
2013-04-27 21:29:00,69.3,-4.6,29.83,WNW,285,0.0,0.0,5,0.00,,---,0.00,VWS V14.01,2013-04-28 04:29:00,
2013-04-27 21:34:00,69.3,-4.6,29.83,WNW,284,0.0,0.0,5,0.00,,---,0.00,VWS V14.01,2013-04-28 04:34:00,
2013-04-27 21:39:00,69.3,-4.6,29.83,WNW,285,0.0,0.0,5,0.00,,---,0.00,VWS V14.01,2013-04-28 04:39:00,
2013-04-27 21:44:00,69.3,-4.6,29.83,West,281,0.0,0.0,5,0.00,,---,0.00,VWS V14.01,2013-04-28 04:44:00,
2013-04-27 21:49:00,69.1,-4.7,29.83,West,278,0.0,0.0,5,0.00,,---,0.00,VWS V14.01,2013-04-28 04:49:00,
2013-04-27 21:55:00,68.9,-4.8,29.83,West,278,0.0,0.0,5,0.00,,---,0.00,VWS V14.01,2013-04-28 04:55:00,
2013-04-27 22:00:00,68.7,-4.9,29.83,West,278,0.0,0.0,5,0.00,,---,0.00,VWS V14.01,2013-04-28 05:00:00,
2013-04-27 22:05:00,68.7,-4.9,29.83,West,278,0.0,0.0,5,0.00,,---,0.00,VWS V14.01,2013-04-28 05:05:00,
2013-04-27 22:10:00,68.4,-5.2,29.83,West,278,0.0,0.0,5,0.00,,---,0.00,VWS V14.01,2013-04-28 05:10:00,
2013-04-27 22:15:00,68.7,-4.9,29.83,West,277,0.0,0.0,5,0.00,,---,0.00,VWS V14.01,2013-04-28 05:15:00,
2013-04-27 22:20:00,68.4,-5.2,29.83,West,276,0.0,0.0,5,0.00,,---,0.00,VWS V14.01,2013-04-28 05:20:00,
2013-04-27 22:25:00,68.0,-5.4,29.83,West,276,0.0,0.0,5,0.00,,---,0.00,VWS V14.01,2013-04-28 05:25:00,
2013-04-27 22:30:00,67.3,-6.0,29.83,West,275,0.0,0.0,5,0.00,,---,0.00,VWS V14.01,2013-04-28 05:30:00,
2013-04-27 22:35:00,66.9,-6.2,29.83,West,275,0.0,0.0,5,0.00,,---,0.00,VWS V14.01,2013-04-28 05:35:00,
2013-04-27 22:40:00,66.7,-6.3,29.83,West,275,0.0,0.0,5,0.00,,---,0.00,VWS V14.01,2013-04-28 05:40:00,
2013-04-27 22:45:00,66.9,-6.2,29.83,West,259,0.0,0.0,5,0.00,,---,0.00,VWS V14.01,2013-04-28 05:45:00,
2013-04-27 22:50:00,66.9,-6.2,29.83,WSW,254,0.0,0.0,5,0.00,,---,0.00,VWS V14.01,2013-04-28 05:50:00,
2013-04-27 22:55:00,66.6,-6.5,29.83,SW,234,3.1,3.1,5,0.00,,---,0.00,VWS V14.01,2013-04-28 05:55:00,
2013-04-27 23:00:00,66.7,-6.3,29.83,SW,221,3.6,3.6,5,0.00,,---,0.00,VWS V14.01,2013-04-28 06:00:00,
2013-04-27 23:05:00,66.7,-6.3,29.83,SW,220,0.0,0.0,5,0.00,,---,0.00,VWS V14.01,2013-04-28 06:05:00,
2013-04-27 23:10:00,66.6,-6.5,29.83,SW,220,0.0,0.0,5,0.00,,---,0.00,VWS V14.01,2013-04-28 06:10:00,
2013-04-27 23:15:00,66.0,-6.9,29.83,SW,220,0.0,0.0,5,0.00,,---,0.00,VWS V14.01,2013-04-28 06:15:00,
2013-04-27 23:20:00,65.7,-7.1,29.83,SW,220,0.0,0.0,5,0.00,,---,0.00,VWS V14.01,2013-04-28 06:20:00,
2013-04-27 23:25:00,65.3,-7.4,29.83,SW,219,0.0,0.0,5,0.00,,---,0.00,VWS V14.01,2013-04-28 06:25:00,
2013-04-27 23:30:00,65.3,-7.4,29.83,SW,214,0.0,0.0,5,0.00,,---,0.00,VWS V14.01,2013-04-28 06:30:00,
2013-04-27 23:35:00,65.3,-7.4,29.83,SSW,206,5.8,5.8,5,0.00,,---,0.00,VWS V14.01,2013-04-28 06:35:00,
2013-04-27 23:40:00,64.6,-7.9,29.83,SSW,192,0.0,0.0,5,0.00,,---,0.00,VWS V14.01,2013-04-28 06:40:00,
2013-04-27 23:45:00,64.2,-4.4,29.83,South,190,0.0,0.0,6,0.00,,---,0.00,VWS V14.01,2013-04-28 06:45:00,
2013-04-27 23:50:00,64.2,-4.4,29.83,SW,220,3.6,3.6,6,0.00,,---,0.00,VWS V14.01,2013-04-28 06:50:00,
2013-04-27 23:55:00,64.6,-7.9,29.83,SW,221,0.0,0.0,5,0.00,,---,0.00,VWS V14.01,2013-04-28 06:55:00,